Weather reports worldwide

Advertisment
Marham, United Kingdom (3482): temperature & dewpoint: 12.09.2019 04:00:00 - 18.09.2019 04:00:00 (BST)Marham, United Kingdom (3482): temperature -20cm & temperature -100cm: 12.09.2019 04:00:00 - 18.09.2019 04:00:00 (BST)Marham, United Kingdom (3482): wind speed & gusts: 12.09.2019 04:00:00 - 18.09.2019 04:00:00 (BST)Marham, United Kingdom (3482): wind direction: 12.09.2019 04:00:00 - 18.09.2019 04:00:00 (BST)Marham, United Kingdom (3482): reduced air pressure: 12.09.2019 04:00:00 - 18.09.2019 04:00:00 (BST)Marham, United Kingdom (3482): visibility: 12.09.2019 04:00:00 - 18.09.2019 04:00:00 (BST)Marham, United Kingdom (3482): precipitation: 12.09.2019 04:00:00 - 18.09.2019 04:00:00 (BST)
Date & Time tt [°C] td [°C] tt -20cm [°C] tt -100cm [°C] ff [km/h] ff [kn] fx [km/h] fx [kn] dd ppp [hPa] vv [km] rr [mm]
18.09.2019 04:00:00 4,7 4,4 - - 4 2 - - NNE 1029,3 10 0,0
18.09.2019 03:00:00 3,8 3,3 - - 0 0 - - N 1029,1 17 0,0
18.09.2019 02:00:00 4,2 3,6 - - 2 1 - - NE 1029,2 22 0,0
18.09.2019 01:00:00 4,4 3,4 - - 2 1 - - ESE 1028,8 10 0,0
18.09.2019 00:00:00 6,0 4,4 - - 4 2 - - WSW 1029,0 10 0,0
17.09.2019 23:00:00 6,3 4,3 - - 2 1 - - SW 1028,7 10 0,0
17.09.2019 22:00:00 7,5 4,4 - - 5 3 - - SW 1028,6 10 0,0
17.09.2019 21:00:00 7,6 4,9 - - 4 2 - - N 1028,1 10 0,0
17.09.2019 20:00:00 9,7 5,6 - - 2 1 - - ENE 1027,8 10 0,0
17.09.2019 19:00:00 11,5 5,5 - - 16 9 - - NNE 1027,2 10 0,0
17.09.2019 18:00:00 13,3 6,1 - - 24 13 - - N 1026,8 10 0,0
17.09.2019 17:00:00 14,7 6,0 - - 21 11 - - NNE 1026,5 10 0,0
17.09.2019 16:00:00 15,1 6,2 - - 21 11 - - N 1026,3 10 0,0
17.09.2019 15:00:00 15,5 5,8 - - 21 11 - - N 1026,1 25 0,0
17.09.2019 14:00:00 14,7 6,0 - - 21 11 - - N 1025,9 10 0,0
17.09.2019 13:00:00 15,4 8,4 - - 21 11 - - N 1025,7 10 0,0
17.09.2019 12:00:00 14,8 8,6 - - 15 8 - - N 1025,4 25 0,0
17.09.2019 11:00:00 13,7 8,1 - - 18 10 - - NNW 1025,3 20 0,0
17.09.2019 10:00:00 13,1 8,9 15,2 15,4 21 11 - - NW 1024,8 10 0,0
17.09.2019 09:00:00 10,7 9,2 - - 13 7 - - WNW 1024,5 10 0,0
17.09.2019 08:00:00 8,5 7,6 - - 11 6 - - WNW 1024,1 10 0,0
17.09.2019 07:00:00 7,6 7,0 - - 11 6 - - WNW 1023,7 10 0,0
17.09.2019 06:00:00 7,8 7,3 - - 11 6 - - WNW 1023,2 10 0,0
17.09.2019 05:00:00 8,4 7,8 - - 11 6 - - WNW 1023,0 10 0,0
17.09.2019 04:00:00 8,7 8,2 - - 11 6 - - WNW 1023,2 10 0,0
17.09.2019 03:00:00 9,0 8,4 - - 13 7 - - WNW 1023,0 12 0,0
17.09.2019 02:00:00 9,8 9,7 - - 4 2 - - WSW 1023,0 7 0,0
17.09.2019 01:00:00 8,4 8,2 - - 4 2 - - W 1023,0 3,5 0,0
17.09.2019 00:00:00 8,3 8,0 - - 5 3 - - SE 1023,0 0,8 0,0
16.09.2019 23:00:00 8,6 8,0 - - 4 2 - - S 1023,1 0,8 0,0
16.09.2019 22:00:00 9,8 9,0 - - 2 1 - - WNW 1023,3 5 0,0
16.09.2019 21:00:00 12,1 11,0 - - 2 1 - - SW 1023,3 10 0,0
16.09.2019 20:00:00 14,0 11,3 - - 4 2 - - SE 1022,9 10 0,0
16.09.2019 19:00:00 14,2 11,4 - - 5 3 - - N 1022,8 15 0,0
16.09.2019 18:00:00 14,6 11,4 - - 4 2 - - NW 1022,4 10 0,0
16.09.2019 17:00:00 14,5 11,6 - - 5 3 - - NNE 1022,4 10 0,0
16.09.2019 16:00:00 14,4 11,5 - - 9 5 - - N 1022,7 20 0,0
16.09.2019 15:00:00 14,0 12,2 - - 13 7 - - N 1022,7 10 0,0
16.09.2019 14:00:00 14,5 12,4 - - 11 6 - - N 1022,4 10 0,0
16.09.2019 13:00:00 15,0 13,0 - - 8 4 - - N 1022,4 10 0,0
16.09.2019 12:00:00 14,0 12,2 - - 8 4 - - NNE 1022,4 10 0,0
16.09.2019 11:00:00 13,8 12,8 - - 5 3 - - NE 1022,1 10 0,0
16.09.2019 10:00:00 13,3 12,7 15,7 15,4 11 6 - - ENE 1021,9 10 0,0
16.09.2019 09:00:00 12,9 12,5 - - 8 4 - - ENE 1021,7 7 0,0
16.09.2019 08:00:00 12,6 12,2 - - 8 4 - - ENE 1021,3 10 0,0
16.09.2019 07:00:00 12,4 12,1 - - 8 4 - - NE 1021,0 10 0,2
16.09.2019 06:00:00 12,5 12,2 - - 8 4 - - E 1020,7 3,0 1,2
16.09.2019 05:00:00 12,7 12,2 - - 8 4 - - ENE 1020,9 2,0 0,6
16.09.2019 04:00:00 13,3 12,8 - - 5 3 - - E 1021,2 2,0 0,4
16.09.2019 03:00:00 13,6 12,9 - - 5 3 - - E 1021,6 10 0,0
16.09.2019 02:00:00 13,9 13,1 - - 5 3 - - E 1021,9 8 0,0
16.09.2019 01:00:00 13,8 13,3 - - 5 3 - - N 1022,2 10 0,6
16.09.2019 00:00:00 13,9 12,9 - - 5 3 - - NE 1022,4 10 0,2
15.09.2019 23:00:00 14,4 12,1 - - 8 4 - - N 1022,7 10 0,0
15.09.2019 22:00:00 15,1 11,4 - - 2 1 - - SE 1022,7 23 0,0
15.09.2019 21:00:00 15,1 11,7 - - 5 3 - - NE 1023,1 - 0,0
15.09.2019 20:00:00 15,8 11,7 - - 9 5 - - NE 1022,6 - 0,0
15.09.2019 19:00:00 16,4 11,9 - - 11 6 - - NE 1022,5 26 0,0
15.09.2019 18:00:00 18,4 13,9 - - 16 9 - - N 1022,7 25 0,0
15.09.2019 17:00:00 19,8 14,0 - - 18 10 - - N 1022,5 27 0,0
15.09.2019 16:00:00 22,8 13,5 - - 22 12 - - W 1022,6 10 0,0
15.09.2019 15:00:00 22,8 13,7 - - 22 12 - - WSW 1022,8 30 0,0
15.09.2019 14:00:00 21,6 14,3 - - 15 8 - - WNW 1023,2 30 0,0
15.09.2019 13:00:00 21,7 14,3 - - 16 9 - - WNW 1023,5 30 0,0
15.09.2019 12:00:00 20,4 13,3 - - 18 10 - - W 1024,0 27 0,0
15.09.2019 11:00:00 18,5 12,0 - - 21 11 - - W 1024,0 27 0,0
15.09.2019 10:00:00 16,7 11,0 15,2 15,4 16 9 - - W 1024,2 25 0,0
15.09.2019 09:00:00 14,8 9,6 - - 15 8 - - WSW 1024,0 24 0,0
15.09.2019 08:00:00 11,0 8,5 - - 9 5 - - SSE 1023,6 19 0,0
15.09.2019 07:00:00 9,3 7,3 - - 8 4 - - SSW 1023,6 10 0,0
15.09.2019 06:00:00 8,6 6,2 - - 11 6 - - SSW 1023,5 19 0,0
15.09.2019 05:00:00 9,4 6,6 - - 8 4 - - S 1023,6 22 0,0
15.09.2019 04:00:00 9,1 5,8 - - 11 6 - - SSW 1023,9 22 0,0
15.09.2019 03:00:00 9,1 5,8 - - 11 6 - - SSW 1024,6 20 0,0
15.09.2019 02:00:00 9,7 6,7 - - 9 5 - - SSW 1025,4 21 0,0
15.09.2019 01:00:00 10,4 8,1 - - 11 6 - - SSW 1025,6 21 0,0
15.09.2019 00:00:00 11,7 9,5 - - 13 7 - - S 1026,1 21 0,0
14.09.2019 23:00:00 10,8 8,5 - - 8 4 - - SSW 1026,7 17 0,0
14.09.2019 22:00:00 11,7 6,5 - - 8 4 - - S 1027,1 23 0,0
14.09.2019 21:00:00 13,2 6,4 - - 4 2 - - S 1027,5 23 0,0
14.09.2019 20:00:00 14,8 5,6 - - 5 3 - - SSW 1027,7 28 0,0
14.09.2019 19:00:00 18,2 5,7 - - 9 5 - - SSW 1028,0 26 0,0
14.09.2019 18:00:00 20,9 5,6 - - 11 6 - - SW 1028,4 27 0,0
14.09.2019 17:00:00 20,9 5,5 - - 11 6 - - SSW 1028,8 29 0,0
14.09.2019 16:00:00 21,3 6,2 - - 13 7 - - SSW 1029,6 27 0,0
14.09.2019 15:00:00 20,2 6,1 - - 11 6 - - SSE 1030,7 26 0,0
14.09.2019 14:00:00 20,4 8,1 - - 9 5 - - SW 1031,9 10 0,0
14.09.2019 13:00:00 18,6 7,1 - - 5 3 - - SSW 1032,8 25 0,0
14.09.2019 12:00:00 18,0 7,5 - - 13 7 - - S 1033,6 26 0,0
14.09.2019 11:00:00 16,2 7,7 - - 9 5 - - S 1034,4 10 0,0
14.09.2019 10:00:00 13,5 9,7 15,4 15,5 5 3 - - S 1034,5 21 0,0
14.09.2019 09:00:00 11,2 10,9 - - 5 3 - - S 1034,6 18 0,0
14.09.2019 08:00:00 5,9 5,7 - - 2 1 - - S 1035,0 19 0,0
14.09.2019 07:00:00 4,5 4,2 - - 2 1 - - W 1035,0 9 0,0
14.09.2019 06:00:00 4,2 3,8 - - 0 0 - - N 1035,3 21 0,0
14.09.2019 05:00:00 4,9 4,6 - - 2 1 - - NE 1035,5 14 0,0
14.09.2019 04:00:00 5,4 4,9 - - 4 2 - - NE 1036,0 14 0,0
14.09.2019 03:00:00 5,9 5,3 - - 4 2 - - NE 1036,5 10 0,0
14.09.2019 02:00:00 6,7 5,7 - - 2 1 - - E 1036,7 18 0,0
14.09.2019 01:00:00 7,7 6,0 - - 2 1 - - SW 1036,8 18 0,0
14.09.2019 00:00:00 8,6 6,8 - - 4 2 - - SSE 1036,5 22 0,0
13.09.2019 23:00:00 9,5 6,7 - - 5 3 - - ESE 1036,8 21 0,0
13.09.2019 22:00:00 10,1 6,5 - - 2 1 - - E 1037,0 10 0,0
13.09.2019 21:00:00 12,6 7,6 - - 9 5 - - ESE 1036,4 10 0,0
13.09.2019 20:00:00 12,9 6,8 - - 9 5 - - ENE 1036,4 25 0,0
13.09.2019 19:00:00 15,4 6,9 - - 11 6 - - ENE 1035,8 26 0,0
13.09.2019 18:00:00 17,5 6,5 - - 5 3 - - E 1035,8 27 0,0
13.09.2019 17:00:00 17,9 6,3 - - 11 6 - - NNE 1035,7 10 0,0
13.09.2019 16:00:00 18,4 6,1 - - 13 7 - - NNE 1035,7 10 0,0
13.09.2019 15:00:00 18,0 5,8 - - 13 7 - - N 1035,5 28 0,0
13.09.2019 14:00:00 17,6 5,8 - - 15 8 - - NNE 1035,6 10 0,0
13.09.2019 13:00:00 17,4 7,4 - - 11 6 - - NNE 1035,7 10 0,0
13.09.2019 12:00:00 15,7 7,6 - - 15 8 - - N 1035,4 10 0,0
13.09.2019 11:00:00 15,4 9,0 - - 13 7 - - N 1035,5 10 0,0
13.09.2019 10:00:00 14,5 8,9 15,7 15,5 13 7 - - NNW 1035,2 10 0,0
13.09.2019 09:00:00 13,3 8,5 - - 16 9 - - NNW 1034,3 10 0,0
13.09.2019 08:00:00 11,7 9,1 - - 13 7 - - NNW 1033,6 10 0,0
13.09.2019 07:00:00 9,9 7,9 - - 13 7 - - NW 1032,7 10 0,0
13.09.2019 06:00:00 11,0 8,1 - - 11 6 - - NW 1032,2 10 0,0
13.09.2019 05:00:00 12,6 8,8 - - 16 9 - - NW 1031,2 10 0,0
13.09.2019 04:00:00 14,5 11,0 - - 18 10 - - NW 1030,7 10 0,0
13.09.2019 03:00:00 15,3 12,5 - - 21 11 - - NW 1029,5 30 0,0
13.09.2019 02:00:00 16,2 13,2 - - 18 10 - - NW 1028,8 10 0,0
13.09.2019 01:00:00 16,8 14,1 - - 18 10 - - W 1028,0 10 0,0
13.09.2019 00:00:00 17,6 13,9 - - 18 10 - - WSW 1027,3 10 0,0
12.09.2019 23:00:00 17,7 13,1 - - 24 13 - - WSW 1027,0 25 0,0
12.09.2019 22:00:00 18,9 12,5 - - 21 11 - - WSW 1026,6 10 0,0
12.09.2019 21:00:00 20,1 11,7 - - 31 17 - - WSW 1025,8 10 0,0
12.09.2019 20:00:00 21,0 11,6 - - 31 17 46 25 WSW 1025,4 10 0,0
12.09.2019 19:00:00 22,5 13,8 - - 28 15 - - WSW 1024,5 10 0,0
12.09.2019 18:00:00 23,0 15,2 - - 26 14 - - SW 1024,2 10 0,0
12.09.2019 17:00:00 23,2 15,2 - - 34 18 46 25 WSW 1024,2 10 0,0
12.09.2019 16:00:00 23,1 14,5 - - 29 16 46 25 SW 1024,1 10 0,0
12.09.2019 15:00:00 22,7 14,9 - - 26 14 - - SW 1024,5 10 0,0
12.09.2019 14:00:00 22,6 14,5 - - 31 17 - - SW 1024,8 10 0,0
12.09.2019 13:00:00 22,8 14,7 - - 29 16 46 25 WSW 1025,2 10 0,0
12.09.2019 12:00:00 21,6 14,1 - - 29 16 - - WSW 1025,6 10 0,0
12.09.2019 11:00:00 20,0 13,3 - - 26 14 - - SW 1025,7 10 0,0
12.09.2019 10:00:00 17,7 12,6 15,2 15,7 24 13 - - SW 1025,6 10 0,0
12.09.2019 09:00:00 15,6 13,0 - - 18 10 - - SW 1025,2 10 0,0
12.09.2019 08:00:00 12,4 11,8 - - 11 6 - - SSW 1025,2 10 0,0
12.09.2019 07:00:00 9,5 8,8 - - 5 3 - - S 1024,7 10 0,0
12.09.2019 06:00:00 9,6 8,7 - - 8 4 - - S 1024,0 10 0,0
12.09.2019 05:00:00 9,3 8,4 - - 8 4 - - SSW 1023,9 10 0,0
12.09.2019 04:00:00 9,5 8,1 - - 8 4 - - SSW 1024,1 10 0,0

tt = temperature
td = dewpoint
tt -20cm = temperature -20cm
tt -100cm = temperature -100cm
ff = wind speed
fx = gusts
dd = wind direction
ppp = reduced air pressure
vv = visibility
rr = precipitation

Next stations